Time,TemperatureF,DewpointF,PressureIn,WindDirection,WindDirectionDegrees,WindSpeedMPH,WindSpeedGustMPH,Humidity,HourlyPrecipIn,Conditions,Clouds,dailyrainin,SoftwareType,DateUTC
2013-03-21 00:02:00,34.0,21.0,-100.00,NW,305,9.0,27.0,58,-99.99,,,-99.99,,2013-03-21 06:02:00,
2013-03-21 00:12:00,34.0,20.0,-100.00,SW,230,12.0,27.0,58,-99.99,,,-99.99,,2013-03-21 06:12:00,
2013-03-21 00:22:00,34.0,20.0,-100.00,SSW,205,6.0,21.0,58,-99.99,,,-99.99,,2013-03-21 06:22:00,
2013-03-21 00:32:00,34.0,20.0,-100.00,WSW,245,11.0,21.0,58,-99.99,,,-99.99,,2013-03-21 06:32:00,
2013-03-21 00:42:00,34.0,21.0,-100.00,SW,220,12.0,24.0,58,-99.99,,,-99.99,,2013-03-21 06:42:00,
2013-03-21 00:52:00,34.0,21.0,-100.00,SW,225,10.0,23.0,58,-99.99,,,-99.99,,2013-03-21 06:52:00,
2013-03-21 01:02:00,33.0,21.0,-100.00,WSW,245,6.0,24.0,59,-99.99,,,-99.99,,2013-03-21 07:02:00,
2013-03-21 01:12:00,33.0,21.0,-100.00,SW,235,5.0,25.0,61,-99.99,,,-99.99,,2013-03-21 07:12:00,
2013-03-21 01:22:00,32.0,21.0,-100.00,WSW,255,4.0,17.0,63,-99.99,,,-99.99,,2013-03-21 07:22:00,
2013-03-21 01:32:00,32.0,22.0,-100.00,SW,225,1.0,11.0,64,-99.99,,,-99.99,,2013-03-21 07:32:00,
2013-03-21 01:42:00,33.0,22.0,-100.00,North,350,7.0,12.0,65,-99.99,,,-99.99,,2013-03-21 07:42:00,
2013-03-21 01:52:00,32.0,22.0,-100.00,North,10,3.0,17.0,65,-99.99,,,-99.99,,2013-03-21 07:52:00,
2013-03-21 02:02:00,31.0,22.0,-100.00,NE,45,7.0,13.0,69,-99.99,,,-99.99,,2013-03-21 08:02:00,
2013-03-21 02:13:00,31.0,23.0,-100.00,NW,320,4.0,16.0,71,-99.99,,,-99.99,,2013-03-21 08:13:00,
2013-03-21 02:22:00,32.0,24.0,-100.00,WNW,290,9.0,16.0,72,-99.99,,,-99.99,,2013-03-21 08:22:00,
2013-03-21 02:33:00,31.0,24.0,-100.00,WNW,295,6.0,10.0,72,-99.99,,,-99.99,,2013-03-21 08:33:00,
2013-03-21 02:42:00,32.0,24.0,-100.00,NW,305,8.0,14.0,72,-99.99,,,-99.99,,2013-03-21 08:42:00,
2013-03-21 02:52:00,32.0,24.0,-100.00,NW,315,11.0,19.0,71,-99.99,,,-99.99,,2013-03-21 08:52:00,
2013-03-21 03:02:00,32.0,24.0,-100.00,NW,315,9.0,19.0,70,-99.99,,,-99.99,,2013-03-21 09:02:00,
2013-03-21 03:11:00,32.0,24.0,-100.00,NW,310,11.0,29.0,70,-99.99,,,-99.99,,2013-03-21 09:11:00,
2013-03-21 03:21:00,32.0,23.0,-100.00,West,265,7.0,18.0,69,-99.99,,,-99.99,,2013-03-21 09:21:00,
2013-03-21 03:33:00,32.0,23.0,-100.00,West,260,4.0,23.0,69,-99.99,,,-99.99,,2013-03-21 09:33:00,
2013-03-21 03:43:00,32.0,23.0,-100.00,NW,310,5.0,18.0,68,-99.99,,,-99.99,,2013-03-21 09:43:00,
2013-03-21 03:53:00,32.0,23.0,-100.00,WNW,290,4.0,14.0,68,-99.99,,,-99.99,,2013-03-21 09:53:00,
2013-03-21 04:02:00,33.0,23.0,-100.00,NW,305,7.0,19.0,67,-99.99,,,-99.99,,2013-03-21 10:02:00,
2013-03-21 04:12:00,32.0,23.0,-100.00,NW,320,4.0,12.0,67,-99.99,,,-99.99,,2013-03-21 10:12:00,
2013-03-21 04:22:00,32.0,23.0,-100.00,WSW,240,4.0,8.0,68,-99.99,,,-99.99,,2013-03-21 10:22:00,
2013-03-21 04:33:00,32.0,23.0,-100.00,South,185,5.0,15.0,68,-99.99,,,-99.99,,2013-03-21 10:33:00,
2013-03-21 04:42:00,31.0,23.0,-100.00,WNW,290,6.0,12.0,69,-99.99,,,-99.99,,2013-03-21 10:42:00,
2013-03-21 04:52:00,31.0,23.0,-100.00,SW,230,4.0,11.0,69,-99.99,,,-99.99,,2013-03-21 10:52:00,
2013-03-21 05:02:00,31.0,23.0,-100.00,SW,215,3.0,11.0,69,-99.99,,,-99.99,,2013-03-21 11:02:00,
2013-03-21 05:12:00,31.0,23.0,-100.00,NNW,330,5.0,12.0,69,-99.99,,,-99.99,,2013-03-21 11:12:00,
2013-03-21 05:22:00,32.0,23.0,-100.00,NW,320,6.0,11.0,69,-99.99,,,-99.99,,2013-03-21 11:22:00,
2013-03-21 05:33:00,32.0,23.0,-100.00,NNW,345,4.0,12.0,69,-99.99,,,-99.99,,2013-03-21 11:33:00,
2013-03-21 05:42:00,32.0,23.0,-100.00,NNW,335,3.0,15.0,68,-99.99,,,-99.99,,2013-03-21 11:42:00,
2013-03-21 05:52:00,31.0,23.0,-100.00,SW,225,1.0,5.0,68,-99.99,,,-99.99,,2013-03-21 11:52:00,
2013-03-21 06:02:00,30.0,22.0,-100.00,NE,40,4.0,7.0,70,-99.99,,,-99.99,,2013-03-21 12:02:00,
2013-03-21 06:12:00,30.0,22.0,-100.00,ESE,120,1.0,4.0,70,-99.99,,,-99.99,,2013-03-21 12:12:00,
2013-03-21 06:22:00,30.0,22.0,-100.00,SSE,160,2.0,16.0,71,-99.99,,,-99.99,,2013-03-21 12:22:00,
2013-03-21 06:32:00,30.0,22.0,-100.00,NE,55,5.0,9.0,71,-99.99,,,-99.99,,2013-03-21 12:32:00,
2013-03-21 06:42:00,31.0,22.0,-100.00,SSW,210,4.0,12.0,70,-99.99,,,-99.99,,2013-03-21 12:42:00,
2013-03-21 06:52:00,32.0,23.0,-100.00,WNW,285,7.0,17.0,69,-99.99,,,-99.99,,2013-03-21 12:52:00,
2013-03-21 07:02:00,32.0,24.0,-100.00,SSW,210,10.0,17.0,70,-99.99,,,-99.99,,2013-03-21 13:02:00,
2013-03-21 07:12:00,32.0,24.0,-100.00,SW,235,4.0,15.0,72,-99.99,,,-99.99,,2013-03-21 13:12:00,
2013-03-21 07:22:00,31.0,24.0,-100.00,WSW,245,4.0,7.0,74,-99.99,,,-99.99,,2013-03-21 13:22:00,
2013-03-21 07:32:00,31.0,24.0,-100.00,WSW,245,3.0,9.0,76,-99.99,,,-99.99,,2013-03-21 13:32:00,
2013-03-21 07:42:00,30.0,24.0,-100.00,SW,215,2.0,6.0,78,-99.99,,,-99.99,,2013-03-21 13:42:00,
2013-03-21 07:52:00,30.0,25.0,-100.00,West,280,1.0,3.0,80,-99.99,,,-99.99,,2013-03-21 13:52:00,
2013-03-21 08:02:00,30.0,25.0,-100.00,South,185,6.0,16.0,81,-99.99,,,-99.99,,2013-03-21 14:02:00,
2013-03-21 08:12:00,31.0,25.0,-100.00,SW,235,5.0,16.0,78,-99.99,,,-99.99,,2013-03-21 14:12:00,
2013-03-21 08:21:00,32.0,25.0,-100.00,West,270,4.0,18.0,73,-99.99,,,-99.99,,2013-03-21 14:21:00,
2013-03-21 08:32:00,34.0,24.0,-100.00,WSW,245,6.0,23.0,67,-99.99,,,-99.99,,2013-03-21 14:32:00,
2013-03-21 08:42:00,35.0,24.0,-100.00,SSW,210,12.0,20.0,64,-99.99,,,-99.99,,2013-03-21 14:42:00,
2013-03-21 08:52:00,35.0,24.0,-100.00,SW,225,7.0,28.0,64,-99.99,,,-99.99,,2013-03-21 14:52:00,
2013-03-21 09:03:00,35.0,23.0,-100.00,South,185,8.0,19.0,60,-99.99,,,-99.99,,2013-03-21 15:03:00,
2013-03-21 09:12:00,36.0,22.0,-100.00,West,265,3.0,23.0,57,-99.99,,,-99.99,,2013-03-21 15:12:00,
2013-03-21 09:22:00,36.0,23.0,-100.00,WSW,240,7.0,23.0,59,-99.99,,,-99.99,,2013-03-21 15:22:00,
2013-03-21 09:33:00,36.0,22.0,-100.00,WSW,245,7.0,19.0,56,-99.99,,,-99.99,,2013-03-21 15:33:00,
2013-03-21 09:42:00,36.0,22.0,-100.00,NW,315,11.0,22.0,56,-99.99,,,-99.99,,2013-03-21 15:42:00,
2013-03-21 09:52:00,35.0,21.0,-100.00,WSW,245,6.0,24.0,56,-99.99,,,-99.99,,2013-03-21 15:52:00,
2013-03-21 10:03:00,35.0,21.0,-100.00,NNW,340,6.0,20.0,55,-99.99,,,-99.99,,2013-03-21 16:03:00,
2013-03-21 10:12:00,36.0,21.0,-100.00,ENE,70,3.0,17.0,54,-99.99,,,-99.99,,2013-03-21 16:12:00,
2013-03-21 10:23:00,36.0,21.0,-100.00,ENE,75,4.0,19.0,53,-99.99,,,-99.99,,2013-03-21 16:23:00,
2013-03-21 10:33:00,36.0,20.0,-100.00,North,10,5.0,18.0,52,-99.99,,,-99.99,,2013-03-21 16:33:00,
2013-03-21 10:42:00,36.0,20.0,-100.00,NE,50,4.0,15.0,52,-99.99,,,-99.99,,2013-03-21 16:42:00,
2013-03-21 10:52:00,36.0,21.0,-100.00,NNE,25,6.0,11.0,54,-99.99,,,-99.99,,2013-03-21 16:52:00,
2013-03-21 11:02:00,36.0,21.0,-100.00,NNW,340,4.0,12.0,54,-99.99,,,-99.99,,2013-03-21 17:02:00,
2013-03-21 11:12:00,36.0,21.0,-100.00,ENE,70,2.0,9.0,54,-99.99,,,-99.99,,2013-03-21 17:12:00,
2013-03-21 11:23:00,37.0,22.0,-100.00,North,0,6.0,14.0,54,-99.99,,,-99.99,,2013-03-21 17:23:00,
2013-03-21 11:32:00,38.0,22.0,-100.00,North,0,4.0,12.0,53,-99.99,,,-99.99,,2013-03-21 17:32:00,
2013-03-21 11:42:00,37.0,20.0,-100.00,NW,305,8.0,20.0,49,-99.99,,,-99.99,,2013-03-21 17:42:00,
2013-03-21 11:52:00,39.0,21.0,-100.00,SW,225,6.0,13.0,47,-99.99,,,-99.99,,2013-03-21 17:52:00,
2013-03-21 12:02:00,40.0,21.0,-100.00,SW,220,7.0,16.0,47,-99.99,,,-99.99,,2013-03-21 18:02:00,
2013-03-21 12:12:00,38.0,21.0,-100.00,SW,235,7.0,16.0,48,-99.99,,,-99.99,,2013-03-21 18:12:00,
2013-03-21 12:22:00,37.0,21.0,-100.00,SW,230,2.0,9.0,51,-99.99,,,-99.99,,2013-03-21 18:22:00,
2013-03-21 12:32:00,35.0,21.0,-100.00,NNW,330,6.0,14.0,56,-99.99,,,-99.99,,2013-03-21 18:32:00,
2013-03-21 12:42:00,35.0,22.0,-100.00,NW,310,2.0,7.0,58,-99.99,,,-99.99,,2013-03-21 18:42:00,
2013-03-21 12:52:00,35.0,23.0,-100.00,NW,310,0.0,7.0,60,-99.99,,,-99.99,,2013-03-21 18:52:00,
2013-03-21 13:02:00,36.0,24.0,-100.00,SSW,200,2.0,7.0,60,-99.99,,,-99.99,,2013-03-21 19:02:00,
2013-03-21 13:12:00,35.0,24.0,-100.00,West,270,2.0,10.0,64,-99.99,,,-99.99,,2013-03-21 19:12:00,
2013-03-21 13:22:00,35.0,24.0,-100.00,NW,320,2.0,7.0,63,-99.99,,,-99.99,,2013-03-21 19:22:00,
2013-03-21 13:32:00,35.0,24.0,-100.00,SW,220,4.0,11.0,62,-99.99,,,-99.99,,2013-03-21 19:32:00,
2013-03-21 13:42:00,32.0,23.0,-100.00,WSW,250,5.0,20.0,70,-99.99,,,-99.99,,2013-03-21 19:42:00,
2013-03-21 13:52:00,29.0,25.0,-100.00,SW,220,4.0,9.0,81,-99.99,,,-99.99,,2013-03-21 19:52:00,
2013-03-21 14:02:00,29.0,26.0,-100.00,NW,320,6.0,13.0,88,-99.99,,,-99.99,,2013-03-21 20:02:00,
2013-03-21 14:12:00,30.0,28.0,-100.00,West,280,1.0,7.0,91,-99.99,,,-99.99,,2013-03-21 20:12:00,
2013-03-21 14:22:00,32.0,29.0,-100.00,WNW,300,3.0,9.0,89,-99.99,,,-99.99,,2013-03-21 20:22:00,
2013-03-21 14:33:00,32.0,29.0,-100.00,WNW,300,3.0,9.0,89,-99.99,,,-99.99,,2013-03-21 20:33:00,
2013-03-21 14:42:00,34.0,25.0,-100.00,WNW,285,6.0,14.0,68,-99.99,,,-99.99,,2013-03-21 20:42:00,
2013-03-21 14:52:00,32.0,24.0,-100.00,North,0,4.0,12.0,70,-99.99,,,-99.99,,2013-03-21 20:52:00,
2013-03-21 15:02:00,29.0,21.0,-100.00,WNW,295,8.0,24.0,70,-99.99,,,-99.99,,2013-03-21 21:02:00,
2013-03-21 15:12:00,29.0,21.0,-100.00,East,90,2.0,16.0,73,-99.99,,,-99.99,,2013-03-21 21:12:00,
2013-03-21 15:22:00,29.0,20.0,-100.00,NW,310,14.0,25.0,67,-99.99,,,-99.99,,2013-03-21 21:22:00,
2013-03-21 15:32:00,29.0,19.0,-100.00,West,265,14.0,39.0,65,-99.99,,,-99.99,,2013-03-21 21:32:00,
2013-03-21 15:43:00,27.0,18.0,-100.00,West,280,12.0,36.0,68,-99.99,,,-99.99,,2013-03-21 21:43:00,
2013-03-21 15:53:00,30.0,18.0,-100.00,SW,225,16.0,39.0,60,-99.99,,,-99.99,,2013-03-21 21:53:00,
2013-03-21 16:02:00,30.0,18.0,-100.00,SW,225,16.0,39.0,60,-99.99,,,-99.99,,2013-03-21 22:02:00,
2013-03-21 16:13:00,28.0,17.0,-100.00,SW,230,9.0,34.0,63,-99.99,,,-99.99,,2013-03-21 22:13:00,
2013-03-21 16:23:00,29.0,17.0,-100.00,SW,220,7.0,34.0,60,-99.99,,,-99.99,,2013-03-21 22:23:00,
2013-03-21 16:33:00,28.0,16.0,-100.00,WNW,295,5.0,27.0,59,-99.99,,,-99.99,,2013-03-21 22:33:00,
2013-03-21 16:42:00,28.0,15.0,-100.00,NW,315,11.0,29.0,56,-99.99,,,-99.99,,2013-03-21 22:42:00,
2013-03-21 16:52:00,28.0,15.0,-100.00,NW,305,6.0,21.0,57,-99.99,,,-99.99,,2013-03-21 22:52:00,
2013-03-21 17:02:00,29.0,14.0,-100.00,WNW,300,7.0,19.0,51,-99.99,,,-99.99,,2013-03-21 23:02:00,
2013-03-21 17:12:00,29.0,10.0,-100.00,NNW,330,9.0,35.0,44,-99.99,,,-99.99,,2013-03-21 23:12:00,
2013-03-21 17:22:00,28.0,8.0,-100.00,WNW,285,12.0,32.0,41,-99.99,,,-99.99,,2013-03-21 23:22:00,
2013-03-21 17:32:00,28.0,8.0,-100.00,WNW,285,11.0,29.0,41,-99.99,,,-99.99,,2013-03-21 23:32:00,
2013-03-21 17:42:00,28.0,8.0,-100.00,West,260,10.0,29.0,41,-99.99,,,-99.99,,2013-03-21 23:42:00,
2013-03-21 17:52:00,28.0,8.0,-100.00,WNW,290,6.0,25.0,42,-99.99,,,-99.99,,2013-03-21 23:52:00,
2013-03-21 18:02:00,28.0,8.0,-100.00,North,5,9.0,24.0,42,-99.99,,,-99.99,,2013-03-22 00:02:00,
2013-03-21 18:12:00,27.0,8.0,-100.00,WNW,300,9.0,29.0,43,-99.99,,,-99.99,,2013-03-22 00:12:00,
2013-03-21 18:22:00,27.0,8.0,-100.00,NE,50,8.0,25.0,43,-99.99,,,-99.99,,2013-03-22 00:22:00,
2013-03-21 18:31:00,27.0,7.0,-100.00,West,275,6.0,16.0,42,-99.99,,,-99.99,,2013-03-22 00:31:00,
2013-03-21 18:42:00,26.0,6.0,-100.00,SSW,210,9.0,25.0,41,-99.99,,,-99.99,,2013-03-22 00:42:00,
2013-03-21 18:52:00,26.0,6.0,-100.00,NNW,335,7.0,16.0,41,-99.99,,,-99.99,,2013-03-22 00:52:00,
2013-03-21 19:02:00,25.0,5.0,-100.00,West,260,9.0,17.0,41,-99.99,,,-99.99,,2013-03-22 01:02:00,
2013-03-21 19:12:00,25.0,5.0,-100.00,WNW,290,5.0,24.0,41,-99.99,,,-99.99,,2013-03-22 01:12:00,
2013-03-21 19:22:00,25.0,5.0,-100.00,NNW,345,9.0,29.0,41,-99.99,,,-99.99,,2013-03-22 01:22:00,
2013-03-21 19:32:00,25.0,4.0,-100.00,NW,320,9.0,43.0,40,-99.99,,,-99.99,,2013-03-22 01:32:00,
2013-03-21 19:42:00,24.0,3.0,-100.00,North,0,3.0,31.0,39,-99.99,,,-99.99,,2013-03-22 01:42:00,
2013-03-21 19:52:00,24.0,3.0,-100.00,NW,310,10.0,20.0,40,-99.99,,,-99.99,,2013-03-22 01:52:00,
2013-03-21 20:02:00,23.0,4.0,-100.00,NW,305,11.0,21.0,42,-99.99,,,-99.99,,2013-03-22 02:02:00,
2013-03-21 20:12:00,23.0,4.0,-100.00,WNW,290,9.0,21.0,43,-99.99,,,-99.99,,2013-03-22 02:12:00,
2013-03-21 20:22:00,23.0,4.0,-100.00,WSW,245,5.0,23.0,43,-99.99,,,-99.99,,2013-03-22 02:22:00,
2013-03-21 20:30:00,22.0,3.0,-100.00,NW,305,6.0,26.0,43,-99.99,,,-99.99,,2013-03-22 02:30:00,
2013-03-21 20:32:00,23.0,4.0,-100.00,WSW,245,5.0,23.0,43,-99.99,,,-99.99,,2013-03-22 02:32:00,
2013-03-21 20:42:00,22.0,3.0,-100.00,NW,305,6.0,26.0,43,-99.99,,,-99.99,,2013-03-22 02:42:00,
2013-03-21 20:52:00,22.0,3.0,-100.00,NW,305,6.0,26.0,43,-99.99,,,-99.99,,2013-03-22 02:52:00,
2013-03-21 21:02:00,22.0,3.0,-100.00,NW,305,6.0,26.0,43,-99.99,,,-99.99,,2013-03-22 03:02:00,
2013-03-21 21:12:00,22.0,3.0,-100.00,NW,305,6.0,26.0,43,-99.99,,,-99.99,,2013-03-22 03:12:00,
2013-03-21 21:22:00,22.0,3.0,-100.00,NW,305,6.0,26.0,43,-99.99,,,-99.99,,2013-03-22 03:22:00,
2013-03-21 22:13:00,23.0,4.0,-100.00,South,190,5.0,19.0,44,-99.99,,,-99.99,,2013-03-22 04:13:00,
2013-03-21 22:23:00,23.0,4.0,-100.00,South,190,5.0,19.0,44,-99.99,,,-99.99,,2013-03-22 04:23:00,
2013-03-21 22:32:00,23.0,4.0,-100.00,South,190,5.0,19.0,44,-99.99,,,-99.99,,2013-03-22 04:32:00,
2013-03-21 22:43:00,23.0,4.0,-100.00,West,280,7.0,15.0,44,-99.99,,,-99.99,,2013-03-22 04:43:00,
2013-03-21 22:52:00,23.0,4.0,-100.00,West,280,7.0,15.0,44,-99.99,,,-99.99,,2013-03-22 04:52:00,
2013-03-21 23:02:00,23.0,4.0,-100.00,SW,215,6.0,19.0,45,-99.99,,,-99.99,,2013-03-22 05:02:00,
2013-03-21 23:12:00,23.0,4.0,-100.00,SW,215,6.0,19.0,45,-99.99,,,-99.99,,2013-03-22 05:12:00,
2013-03-21 23:22:00,23.0,4.0,-100.00,NNW,330,6.0,22.0,44,-99.99,,,-99.99,,2013-03-22 05:22:00,
2013-03-21 23:32:00,23.0,4.0,-100.00,NNW,330,6.0,22.0,44,-99.99,,,-99.99,,2013-03-22 05:32:00,
2013-03-21 23:42:00,23.0,4.0,-100.00,NNW,330,6.0,22.0,44,-99.99,,,-99.99,,2013-03-22 05:42:00,
2013-03-21 23:52:00,23.0,5.0,-100.00,NNW,330,9.0,22.0,45,-99.99,,,-99.99,,2013-03-22 05:52:00,